This demonstration page uses our WeatherBlox Daily Observations layout. Learn more.

38.89511, -77.03637

Hourly Observations for April 18, 2015

Temp ( °F °C ) Dew Point ( °F °C ) Humidity (%) Winds ( mph kmh ) Pressure ( in mb ) Visibility ( mi km ) Precip ( " mm )
12:52 am 00:52 Mostly Cloudy 66 18.9 59 15 78 78 NNW 5 7 29.99 1016 10 16.0934 0 0
1:52 am 01:52 Partly Cloudy 67 19.4 57 13.9 71 71 N 3 6 29.99 1016 10 16.0934 0 0
2:52 am 02:52 Mostly Clear 64 17.8 57 13.9 78 78 Calm 29.98 1015 10 16.0934 0 0
3:52 am 03:52 Mostly Cloudy 63 17.2 57 13.9 81 81 Calm 29.98 1015 10 16.0934 0 0
4:52 am 04:52 Partly Cloudy 61 16.1 56 13.3 84 84 NNW 7 11 29.98 1015 10 16.0934 0 0
5:52 am 05:52 Partly Cloudy 61 16.1 54 12.2 78 78 N 5 7 29.99 1016 10 16.0934 0 0
6:52 am 06:52 Mostly Cloudy 62 16.7 54 12.2 75 75 Calm 30.02 1017 10 16.0934 0 0
7:52 am 07:52 Partly Cloudy 64 17.8 57 13.9 78 78 Calm 30.04 1017 10 16.0934 0 0
8:52 am 08:52 Mostly Sunny 69 20.6 54 12.2 59 59 Calm 30.04 1017 10 16.0934 0 0
9:52 am 09:52 Mostly Sunny 71 21.7 54 12.2 55 55 ENE 7 11 30.03 1017 10 16.0934 0 0
10:52 am 10:52 Partly Cloudy 74 23.3 54 12.2 50 50 NNE 5 7 30.03 1017 10 16.0934 0 0
11:52 am 11:52 Partly Cloudy 77 25 52 11.1 42 42 N 6 9 30.03 1017 10 16.0934 0 0
12:52 pm 12:52 Partly Cloudy 78 25.6 49 9.4 36 36 ENE 6 9 30 1016 10 16.0934 0 0
1:52 pm 13:52 Partly Cloudy 79 26.1 47 8.3 32 32 Calm 29.98 1015 10 16.0934 0 0
2:52 pm 14:52 Partly Cloudy 82 27.8 46 7.8 28 28 N 6 9 29.96 1015 10 16.0934 0 0
3:52 pm 15:52 Mostly Cloudy 81 27.2 47 8.3 30 30 NE 7 11 29.94 1014 10 16.0934 0 0
4:52 pm 16:52 Mostly Cloudy 83 28.3 44 6.7 25 25 N 5 7 29.95 1014 10 16.0934 0 0
5:52 pm 17:52 Cloudy 80 26.7 45 7.2 29 29 NW 7 11 29.96 1015 10 16.0934 0 0
6:52 pm 18:52 Cloudy 78 25.6 49 9.4 36 36 N 5 7 29.95 1014 10 16.0934 0 0
7:52 pm 19:52 Mostly Cloudy 76 24.4 47 8.3 36 36 Calm 29.96 1015 10 16.0934 0 0
8:52 pm 20:52 Mostly Cloudy 71 21.7 52 11.1 51 51 S 7 11 29.98 1015 10 16.0934 0 0
9:52 pm 21:52 Mostly Cloudy 70 21.1 50 10 49 49 S 6 9 30 1016 10 16.0934 0 0
10:52 pm 22:52 Mostly Cloudy 68 20 49 9.4 51 51 SSW 5 7 30.01 1016 10 16.0934 0 0
11:52 pm 23:52 Mostly Cloudy 67 19.4 49 9.4 53 53 SSW 3 6 30.01 1016 10 16.0934 0 0

Powered by AerisWeather